Home > Time Zones > World Clock > Weather > India > Moga > Past weeks

Flag Weather past 2 weeks in Moga, Punjab, India

Now
79 °F

Haze.


Feels Like: 80 °F
Forecast: 64 / 87 °F
Wind: 6 mph from Northwest

Location: Amritsar Airport

Current Time: Oct 31, 2014 at 1:36:25 PM

Latest Report: Oct 31, 2014 at 12:00 PM


Visibility: 3 mi

Pressure: 30.04 "Hg

Humidity: 48%

Dew point: 57 °F

Location of MogaLocation

Historic Weather in Moga — Graph

°F

Moga temperature yesterday

Maximum temperature yesterday: 82 °F (at 1:30 PM)
Minimum temperature yesterday: 59 °F (at 7:00 AM)
Average temperature yesterday: 70 °F

Past Weeks' High & Low Weather Summary

 TemperatureHumidityPressure
High88 °F (Oct 21, 2:00 PM)100% (Oct 17, 2:00 AM)30.09 "Hg (Oct 17, 2:00 AM)
Low57 °F (Oct 31, 7:00 AM)35% (Oct 21, 3:00 PM)29.86 "Hg (Oct 25, 4:00 PM)
Average72 °F76%29.96 "Hg
* Reported Oct 16 11:30 AM — Oct 31 12:00 Noon, Moga, Weather by CustomWeather, © 2014

Note: Actual official high and low records may vary slightly from our data, if they occured in-between our weather recording intervals... More about our weather records

Advertising

Moga weather history for previous 24 hours

 ConditionsComfort  
Time TempWeatherWind HumidityBarometerVisibility
12:00 PM
Oct 31
79 °FHaze.6 mph48%30.04 "Hg3 mi
11:30 AM77 °FHaze.5 mph51%30.04 "Hg3 mi
11:00 AM75 °FHaze.6 mph57%30.04 "Hg2 mi
10:30 AM73 °FHaze.5 mph65%30.04 "Hg2 mi
9:30 AM68 °FFog.2 mph83%30.04 "Hg2 mi
9:00 AM64 °FFog.3 mph94%30.04 "Hg1 mi
8:30 AM63 °FFog.3 mph100%30.04 "Hg1 mi
8:00 AM61 °FFog.2 mph100%30.01 "Hg1 mi
7:00 AM57 °FFog.No wind100%29.98 "Hg1 mi
6:30 AM59 °FFog.No wind100%29.98 "Hg1 mi
6:00 AM59 °FFog.No wind100%29.98 "Hg1 mi
5:30 AM59 °FFog.No wind100%29.95 "Hg1 mi
5:00 AM59 °FFog.No wind100%29.95 "Hg1 mi
4:30 AM59 °FFog.No wind100%29.95 "Hg1 mi
4:00 AM61 °FFog.No wind100%29.95 "Hg1 mi
3:30 AM61 °FFog.No wind94%29.95 "Hg1 mi
3:00 AM61 °FFog.No wind100%29.95 "Hg1 mi
2:30 AM61 °FFog.No wind100%29.95 "Hg1 mi
2:00 AM61 °FFog.No wind94%29.95 "Hg1 mi
1:30 AM63 °FFog.No wind94%29.98 "Hg1 mi
12:30 AM64 °FFog.No wind88%29.98 "Hg2 mi
12:00 AM64 °FFog.No wind88%29.98 "Hg2 mi
11:30 PM
Oct 30
66 °FFog.No wind83%29.98 "Hg2 mi
11:00 PM66 °FFog.No wind83%29.98 "Hg2 mi
10:30 PM64 °FFog.No wind83%29.98 "Hg2 mi
10:00 PM66 °FFog.No wind83%29.98 "Hg2 mi
9:30 PM66 °FFog.No wind83%29.98 "Hg2 mi
9:00 PM68 °FFog.No wind73%29.98 "Hg2 mi
8:30 PM68 °FFog.No wind73%29.95 "Hg2 mi
8:00 PM68 °FPassing clouds.No wind73%29.95 "Hg2 mi
7:30 PM70 °FPassing clouds.2 mph69%29.95 "Hg2 mi
7:00 PM72 °FPassing clouds.No wind65%29.95 "Hg2 mi
6:30 PM72 °FPassing clouds.No wind65%29.92 "Hg2 mi
6:00 PM73 °FScattered clouds.1 mph61%29.92 "Hg2 mi
5:30 PM75 °FScattered clouds.2 mph54%29.92 "Hg2 mi
4:30 PM81 °FScattered clouds.7 mph45%29.92 "Hg3 mi
4:00 PM81 °FScattered clouds.7 mph45%29.92 "Hg4 mi
3:30 PM82 °FScattered clouds.9 mph40%29.92 "Hg4 mi
3:00 PM82 °FScattered clouds.7 mph42%29.92 "Hg4 mi
2:30 PM81 °FScattered clouds.7 mph42%29.92 "Hg4 mi
2:00 PM82 °FScattered clouds.8 mph37%29.92 "Hg3 mi
1:30 PM82 °FHaze.7 mph42%29.95 "Hg3 mi
1:00 PM81 °FHaze.5 mph45%29.95 "Hg3 mi
Weather by CustomWeather, © 2014

See weather overviewHow to use our weather pages